Location: Saluda
(35.2377°N, 82.3468°W)
Time: 03:09:05
(UTC+00:00)

Vanguard 2 Rocket - Pass Details

Date: 03 October 2022
Orbit: 555 x 3321 km, 32.9° (Epoch: 05 December)

Event Time Altitude Azimuth Distance (km) Brightness Sun altitude
Rises 10:37:50 0° 270° (W) 3,555 - -10.6°
Exits shadow 10:42:11 - 241° (WSW) 2,272 8.4 -9.7°
Reaches altitude 10° 10:42:55 10° 233° (SW) 2,136 8.3 -9.6°
Maximum altitude 10:43:58 11° 220° (SW) 2,014 8.3 -9.4°
Drops below altitude 10° 10:44:59 10° 206° (SSW) 1,992 8.4 -9.2°
Sets 10:48:56 0° 165° (SSE) 2,723 9.6 -8.4°
